GW0699 Weather Reports


Display with metric or nautical units.
time (UTC)temp
F
wind
direction
speed
MPH
gust
MPH
rain 1hr
in
rain 24hr
in
rain mn
in
humidity
%
barometer
mb
20260503214551 84 330 7.0 0.0 0.00 0.00 0.00 36 1007.6
20260503213030 83 334 6.0 0.0 0.00 0.00 0.00 40 1007.7
20260503211501 83 11 6.0 0.0 0.00 0.00 0.00 38 1008.0
20260503210018 83 333 5.0 0.0 0.00 0.00 0.00 41 1008.2
20260503204540 82 317 6.0 0.0 0.00 0.00 0.00 47 1008.3
20260503203039 81 289 7.0 0.0 0.00 0.00 0.00 51 1008.6
20260503201511 80 338 5.0 0.0 0.00 0.00 0.00 50 1008.7
20260503200039 78 306 6.0 0.0 0.00 0.00 0.00 52 1009.0
20260503194514 77 355 7.0 0.0 0.00 0.00 0.00 53 1009.2
20260503193049 76 311 7.0 0.0 0.00 0.00 0.00 52 1009.3
20260503191603 75 342 7.0 0.0 0.00 0.00 0.00 55 1009.6
20260503190017 74 327 7.0 0.0 0.00 0.00 0.00 57 1009.7
20260503184558 74 331 6.0 0.0 0.00 0.00 0.00 57 1009.9
20260503183050 73 348 7.0 0.0 0.00 0.00 0.00 59 1009.9
20260503181545 72 19 8.0 0.0 0.00 0.00 0.00 58 1009.9
20260503180042 72 321 7.0 0.0 0.00 0.00 0.00 57 1010.0
20260503174604 71 315 6.0 0.0 0.00 0.00 0.00 57 1010.2
20260503173027 69 355 7.0 0.0 0.00 0.00 0.00 57 1010.3
20260503171544 69 341 6.0 0.0 0.00 0.00 0.00 57 1010.4
20260503160106 62 15 6.0 0.0 0.00 0.00 0.00 72 1010.6
20260503081540 60 351 3.0 0.0 0.00 0.00 0.00 74 1011.1
20260503071533 59 28 4.0 0.0 0.00 0.00 0.00 78 1011.3
20260503054602 64 360 5.0 0.0 0.00 0.00 0.00 72 1011.3
20260503053038 64 5 5.0 0.0 0.00 0.00 0.00 71 1011.4
20260503051548 65 338 5.0 0.0 0.00 0.00 0.00 71 1011.3
20260503050052 66 360 5.0 0.0 0.00 0.00 0.00 69 1011.3
20260503044529 64 350 2.0 0.0 0.00 0.00 0.00 74 1011.3
20260503043043 65 5 2.0 0.0 0.00 0.00 0.00 73 1011.1
20260503041543 64 18 1.0 0.0 0.00 0.00 0.00 73 1011.0
20260503040050 64 24 2.0 0.0 0.00 0.00 0.00 73 1010.8
20260503034526 66 5 0.0 0.0 0.00 0.00 0.00 70 1010.3
20260503033059 68 44 1.0 0.0 0.00 0.00 0.00 68 1010.0
20260503031508 70 13 2.0 0.0 0.00 0.00 0.00 66 1009.6
20260503030024 70 25 3.0 0.0 0.00 0.00 0.00 66 1009.2
20260503024536 71 336 5.0 0.0 0.00 0.00 0.00 64 1009.1
20260503023008 72 309 5.0 0.0 0.00 0.00 0.00 62 1009.1
20260503021533 73 314 5.0 0.0 0.00 0.00 0.00 58 1009.2
20260503020012 74 328 5.0 0.0 0.00 0.00 0.00 55 1009.2
20260503014553 74 342 5.0 0.0 0.00 0.00 0.00 57 1009.2
20260503013044 74 345 7.0 0.0 0.00 0.00 0.00 55 1009.2
20260503011510 75 334 7.0 0.0 0.00 0.00 0.00 56 1009.2
20260503010035 74 309 6.0 0.0 0.00 0.00 0.00 58 1009.2
20260503004548 75 309 5.0 0.0 0.00 0.00 0.00 58 1009.4
20260503003002 75 336 6.0 0.0 0.00 0.00 0.00 59 1009.4
20260503001533 75 360 5.0 0.0 0.00 0.00 0.00 57 1009.3
20260503000051 75 337 7.0 0.0 0.00 0.00 0.00 58 1009.5
20260502234501 75 337 8.0 0.0 0.00 0.00 0.00 57 1009.6
20260502233021 74 326 7.0 0.0 0.00 0.00 0.00 54 1009.9
20260502231546 74 317 6.0 0.0 0.00 0.00 0.00 55 1010.1
20260502230105 74 11 6.0 0.0 0.00 0.00 0.00 55 1010.3
20260502224541 73 266 5.0 0.0 0.00 0.00 0.00 56 1010.6
20260502223003 73 313 7.0 0.0 0.00 0.00 0.00 56 1010.7
20260502221511 72 347 6.0 0.0 0.00 0.00 0.00 57 1011.1
20260502220030 71 288 5.0 0.0 0.00 0.00 0.00 59 1011.2